Location: La Houssaye
(48.7538°N, 2.8655°E)
Time: 09:29:25
(UTC+00:00)

Daily predictions for brighter satellites

Satellite Brightness Start Highest point End
(mag) Time Altitude Azimuth Time Altitude Azimuth Time Altitude Azimuth
Cosmos 2084 Rocket 3.4 16:37:10 10° SW 16:41:21 90° W 16:45:34 10° NE
ATLAS CENTAUR R/B 2.7 16:41:00 10° W 16:43:56 25° NW 16:46:52 10° NNE
Cosmos 1441 Rocket 3.3 16:42:42 10° NNW 16:46:01 67° W 16:49:21 10° S
SAR-Lupe-4 3.9 16:42:55 10° SE 16:46:18 41° ENE 16:49:42 10° N
Cosmos 2221 Rocket 4.5 16:42:15 10° NNW 16:46:39 56° W 16:50:59 10° S
Cosmos 1833 Rocket 2.9 16:41:11 10° NNW 16:46:52 80° WSW 16:52:30 10° SSE
ARIANE 5 R/B 2.7 16:42:12 10° SE 16:46:58 49° ENE 16:51:47 10° N
USA 215 3.4 16:48:03 10° ESE 16:54:36 88° SSW 17:01:12 10° NW
Timation 1 Rocket 4.5 16:49:21 10° NNW 16:55:13 53° NE 17:01:02 10° SE
IRS-P3 4.4 16:52:42 10° SE 16:57:46 45° ENE 17:02:49 10° N
MOS 1 Rocket 3.8 16:56:02 10° SE 16:59:54 33° ENE 17:03:57 10° N
ATLAS 5 CENTAUR R/B 2.4 16:56:16 10° NW 17:00:35 62° SW 17:05:56 10° SSE
Cosmos 1484 Rocket 4.1 17:00:36 10° S 17:03:54 39° W 17:07:15 10° NNW
Iridium 4 Rocket 4.4 17:01:14 10° SSW 17:06:06 49° W 17:10:37 10° N
Resurs 01 Rocket 3.7 17:08:57 10° NE 17:08:57 10° NE 17:09:13 10° NE
Cosmos 2233 Rocket 4.1 17:02:07 10° S 17:08:26 88° E 17:14:48 10° N
RESURS DK-1 2.3 17:05:24 10° NNW 17:09:23 59° ENE 17:13:19 10° SE
Cosmos 1725 Rocket 4.5 17:03:14 10° SSW 17:09:28 66° WNW 17:15:47 10° N
Cosmos 407 Rocket 3.7 17:04:30 10° S 17:09:28 49° ESE 17:14:26 10° NNE
Cosmos 1602 4.2 17:07:08 10° NNE 17:09:41 23° ENE 17:12:13 10° SE
Cosmos 2061 Rocket 4.0 17:04:38 10° S 17:10:56 83° E 17:17:13 10° N
ISS -3.3 17:11:52 10° SW 17:15:06 48° SSE 17:17:12 19° E
Cosmos 1782 Rocket 3.8 17:10:48 10° SSW 17:15:13 73° W 17:19:41 10° N
CZ-2D R/B 2.6 17:13:00 10° SSE 17:16:08 78° ENE 17:19:18 10° N
Cosmos 1869 3.1 17:13:34 10° S 17:16:59 51° E 17:20:24 10° NNE
ERS-1 4.4 17:12:59 10° SSE 17:18:07 75° ENE 17:23:14 10° NNW
USA 281 4.4 17:15:06 14° ENE 17:18:38 22° NE 17:23:24 10° N
SPOT 1/Viking Rocket 3.9 17:14:07 10° SE 17:18:55 41° ENE 17:23:47 10° N
Cosmos 1300 Rocket 4.2 17:15:06 10° SSW 17:19:25 59° WNW 17:23:46 10° N
COSMO-SKYMED 1 3.7 17:21:26 18° ENE 17:22:47 21° E 17:25:58 10° SE
SJ-12 3.7 17:19:08 10° SSE 17:22:56 89° ENE 17:26:45 10° NNW
Cosmos 1464 Rocket 4.4 17:18:45 10° SSE 17:24:27 38° E 17:30:07 10° NNE
AQUARIUS 4.0 17:22:20 10° SSE 17:26:44 78° ENE 17:31:10 10° N
SL-12 R/B(2) 4.3 17:19:31 10° SSW 17:27:22 69° ESE 17:36:59 10° NE
BREEZE-M DEB (TANK) 2.3 17:26:59 10° WSW 17:29:24 61° SSE 17:32:21 21° E
Cosmos 540 Rocket 3.4 17:24:17 10° NNW 17:29:27 83° ENE 17:34:34 10° SSE
Cosmos 1400 Rocket 3.7 17:27:54 10° SSE 17:31:01 24° E 17:31:12 24° E
Spot 4 Rocket 4.3 17:27:53 10° SE 17:32:44 45° ENE 17:37:35 10° N
Cosmos 1975 Rocket 3.7 17:28:29 10° NNW 17:32:46 59° W 17:37:04 10° S
Cosmos 1763 Rocket 3.6 17:29:41 10° NNW 17:34:55 77° WSW 17:40:03 10° SSE
Cosmos 1812 2.0 17:33:31 10° S 17:36:21 53° E 17:37:34 28° NNE
Cosmos 1140 Rocket 4.3 17:36:23 10° SW 17:41:25 51° WNW 17:46:28 10° NNE
Cosmos 2151 Rocket 3.9 17:37:22 10° SSE 17:41:35 42° E 17:45:29 12° NNE
Cosmos 2058 2.7 17:38:53 10° N 17:42:50 64° ENE 17:46:47 10° SSE
SMAP 4.3 17:38:24 10° S 17:42:53 45° W 17:47:22 10° NNW
Cosmos 44 Rocket 3.3 17:39:31 10° SSW 17:44:14 64° ESE 17:47:07 24° NE
Cosmos 1943 Rocket 2.1 17:43:37 10° SSW 17:49:14 85° ESE 17:54:09 14° NNE
SKYMED 2 3.6 17:45:23 10° NNE 17:49:36 56° E 17:53:52 10° S
Helios 1A Rocket 3.3 17:51:57 32° SE 17:51:57 32° SE 17:54:21 10° SSE
Okean 1 Rocket 3.6 17:47:32 10° SSE 17:51:31 34° E 17:51:43 34° E
CZ-2D R/B 3.3 17:47:38 10° SSE 17:51:45 71° ENE 17:55:58 10° N
SJ-7 4.2 17:48:11 10° SSE 17:51:46 54° ENE 17:55:23 10° N
IRAS Rocket 4.2 17:46:43 10° SSE 17:52:13 66° ENE 17:57:43 10° NNW
Sich 1 Rocket 4.1 17:48:24 10° SSE 17:52:33 37° E 17:53:29 33° ENE
PSLV R/B 3.4 17:49:26 10° SSE 17:53:21 52° ENE 17:57:17 10° N
Cosmos 2082 Rocket 2.1 17:47:57 10° NNW 17:53:37 82° ENE 17:59:14 10° SSE
Cosmos 1072 Rocket 4.3 17:51:25 10° S 17:57:31 70° E 18:03:36 10° NNE
Cosmos 2026 Rocket 4.3 17:52:16 10° N 17:57:58 40° ENE 18:03:41 10° SE
Cosmos 2278 Rocket 2.2 17:52:21 10° SSW 17:58:01 88° WNW 18:02:47 15° NNE
NOAA 6 4.1 17:55:09 10° SE 18:00:07 51° ENE 18:05:05 10° N
Aureole 3 Rocket 2.5 17:58:04 10° SSW 18:01:03 66° W 18:03:11 19° N
BREEZE-M DEB (TANK) 3.2 17:58:20 10° WSW 18:01:08 64° SSE 18:03:16 34° E
BREEZE-M DEB (TANK) 2.9 17:59:30 10° WSW 18:02:05 86° NNW 18:04:09 34° ENE
SL-16 R/B 4.3 18:00:16 10° N 18:05:34 30° WNW 18:10:50 10° WSW
Geosat 4.1 18:04:10 34° ESE 18:06:02 52° NE 18:10:53 10° NNW
Cosmos 2251 Rocket 3.4 18:03:32 10° SSW 18:08:49 85° ESE 18:12:38 20° NNE
YAOGAN 1 2.4 18:06:57 10° SSE 18:11:12 84° ENE 18:15:30 10° NNW
Cosmos 371 Rocket 3.4 18:07:48 10° S 18:12:25 51° ESE 18:12:52 49° E
Cosmos 304 Rocket 3.8 18:08:54 10° S 18:13:30 54° ESE 18:13:56 51° E
Cosmos 841 Rocket 3.4 18:09:24 10° NNW 18:14:40 67° ENE 18:17:16 30° SE
SJ 16-02 1.1 18:10:47 10° S 18:15:04 70° ESE 18:15:42 59° NE
SL-19 R/B 4.0 18:10:14 10° SSE 18:15:26 88° ENE 18:20:42 10° NNW
CZ-4C R/B 4.0 18:15:58 10° WNW 18:19:59 21° N 18:22:35 17° NNE
Nadezhda 4 Rocket 4.0 18:13:49 10° N 18:20:09 85° W 18:26:22 10° S
Cosmos 1862 3.5 18:18:54 10° NNW 18:22:29 60° W 18:26:04 10° S
Resurs 1-3 3.6 18:18:54 10° S 18:23:11 80° WSW 18:27:31 10° NNW
ATLAS 2AS CENTAUR R/B 3.0 18:17:56 10° NW 18:24:24 43° NE 18:25:35 40° ENE
COSMOS 2406 3.1 18:20:41 10° NNW 18:26:24 81° ENE 18:29:07 33° SE
Cosmos 1627 Rocket 4.4 18:22:30 10° N 18:28:36 63° ENE 18:34:43 10° SSE
Cosmos 1656 Rocket 4.0 18:23:56 10° S 18:28:33 45° SE 18:28:33 45° SE
Cosmos 2195 Rocket 4.4 18:27:41 10° N 18:34:02 84° E 18:40:23 10° S
Cosmos 1536 Rocket 4.4 18:30:17 10° NNW 18:34:36 51° W 18:38:51 10° S
Okean 2 Rocket 3.2 18:32:01 10° SSW 18:36:23 71° W 18:37:52 40° N
Cosmos 1190 Rocket 4.3 18:34:31 10° SSW 18:39:46 65° WNW 18:42:26 29° N
Cosmos 676 Rocket 3.9 18:37:19 10° SSW 18:42:38 86° ESE 18:43:16 70° NNE
Cosmos 2344 3.8 18:34:47 10° NW 18:42:39 78° NE 18:47:32 35° SE
Resurs 01 Rocket 3.3 18:46:23 23° N 18:46:23 23° N 18:48:05 10° N
Meteor 2-3 Rocket 3.6 18:40:13 10° NNW 18:45:57 87° W 18:49:59 20° S
ISS -1.4 18:48:33 10° W 18:50:07 25° W 18:50:07 25° W
Cosmos 1954 Rocket 4.4 18:47:31 10° SW 18:52:44 62° WNW 18:54:18 43° N
COSMO-SKYMED 1 3.6 18:57:48 39° NW 18:58:16 40° WNW 19:02:08 10° SW
USA 281 3.0 19:02:00 73° ENE 19:02:12 74° ENE 19:08:47 10° NNW
Cosmos 1943 Rocket 4.2 19:29:21 10° W 19:33:40 22° NW 19:35:40 19° NNW
Cosmos 2278 Rocket 4.3 19:38:41 10° W 19:42:55 21° NW 19:44:37 19° NNW
SJ 16-02 4.2 19:50:53 10° W 19:52:17 15° WNW 19:52:17 15° WNW
CZ-4C R/B 4.5 20:05:24 10° NW 20:07:33 19° NNW 20:07:33 19° NNW
ATLAS 2AS CENTAUR R/B 3.8 20:08:56 10° NW 20:13:01 37° WNW 20:13:01 37° WNW
